| time (UTC) | temp F | wind direction | speed knots | gust knots | rain 1hr in | rain 24hr in | rain mn in | humidity % | barometer mb |
| 20260504050504 | 53 | 19 | 13.9 | 21.7 | 0.00 | 0.00 | 0.00 | 42 | 1013.4 |
| 20260504050004 | 53 | 338 | 13.9 | 23.5 | 0.00 | 0.00 | 0.00 | 41 | 1013.3 |
| 20260504045504 | 54 | 327 | 16.5 | 29.5 | 0.00 | 0.00 | 0.00 | 41 | 1013.2 |
| 20260504045103 | 54 | 360 | 17.4 | 29.5 | 0.00 | 0.00 | 0.00 | 41 | 1013.2 |
| 20260504044506 | 54 | 360 | 17.4 | 24.3 | 0.00 | 0.00 | 0.00 | 40 | 1013.0 |
| 20260504044003 | 55 | 355 | 17.4 | 26.9 | 0.00 | 0.00 | 0.00 | 39 | 1012.7 |
| 20260504043502 | 56 | 355 | 17.4 | 28.7 | 0.00 | 0.00 | 0.00 | 39 | 1012.5 |
| 20260504043004 | 57 | 346 | 20.0 | 28.7 | 0.00 | 0.00 | 0.00 | 39 | 1012.3 |
| 20260504042502 | 57 | 355 | 11.3 | 15.6 | 0.00 | 0.00 | 0.00 | 39 | 1011.9 |
| 20260504042003 | 57 | 20 | 10.4 | 14.8 | 0.00 | 0.00 | 0.00 | 39 | 1011.7 |
| 20260504041501 | 57 | 350 | 8.7 | 13.0 | 0.00 | 0.00 | 0.00 | 39 | 1011.5 |
| 20260504041001 | 58 | 336 | 9.6 | 13.0 | 0.00 | 0.00 | 0.00 | 39 | 1011.4 |
| 20260504040502 | 58 | 355 | 8.7 | 13.0 | 0.00 | 0.00 | 0.00 | 39 | 1011.3 |
| 20260504040107 | 58 | 350 | 8.7 | 13.0 | 0.00 | 0.00 | 0.00 | 39 | 1011.2 |
| 20260504035601 | 58 | 5 | 9.6 | 14.8 | 0.00 | 0.00 | 0.00 | 39 | 1011.1 |
| 20260504035100 | 58 | 350 | 8.7 | 13.0 | 0.00 | 0.00 | 0.00 | 38 | 1010.9 |
| 20260504034605 | 59 | 351 | 9.6 | 13.0 | 0.00 | 0.00 | 0.00 | 38 | 1011.0 |
| 20260504034100 | 59 | 355 | 8.7 | 13.0 | 0.00 | 0.00 | 0.00 | 38 | 1010.8 |
| 20260504033600 | 59 | 355 | 7.8 | 13.0 | 0.00 | 0.00 | 0.00 | 38 | 1010.7 |
| 20260504033115 | 60 | 19 | 7.0 | 13.0 | 0.00 | 0.00 | 0.00 | 37 | 1010.5 |
| 20260504032601 | 60 | 346 | 8.7 | 12.2 | 0.00 | 0.00 | 0.00 | 37 | 1010.4 |
| 20260504032100 | 61 | 355 | 7.8 | 13.0 | 0.00 | 0.00 | 0.00 | 37 | 1010.4 |
| 20260504031559 | 61 | 5 | 8.7 | 17.4 | 0.00 | 0.00 | 0.00 | 36 | 1010.3 |
| 20260504031059 | 62 | 13 | 9.6 | 15.6 | 0.00 | 0.00 | 0.00 | 36 | 1010.2 |
| 20260504030559 | 62 | 355 | 10.4 | 15.6 | 0.00 | 0.00 | 0.00 | 35 | 1010.0 |
| 20260504030058 | 62 | 355 | 8.7 | 16.5 | 0.00 | 0.00 | 0.00 | 35 | 1009.8 |
| 20260504025558 | 63 | 342 | 10.4 | 16.5 | 0.00 | 0.00 | 0.00 | 34 | 1009.7 |
| 20260504025058 | 63 | 5 | 10.4 | 16.5 | 0.00 | 0.00 | 0.00 | 33 | 1009.5 |
| 20260504024605 | 64 | 323 | 11.3 | 16.5 | 0.00 | 0.00 | 0.00 | 32 | 1009.4 |
| 20260504024057 | 65 | 343 | 7.8 | 13.9 | 0.00 | 0.00 | 0.00 | 30 | 1009.3 |
| 20260504023557 | 66 | 341 | 8.7 | 15.6 | 0.00 | 0.00 | 0.00 | 29 | 1009.1 |
| 20260504023057 | 66 | 355 | 10.4 | 15.6 | 0.00 | 0.00 | 0.00 | 28 | 1009.1 |
| 20260504022556 | 67 | 333 | 10.4 | 13.9 | 0.00 | 0.00 | 0.00 | 27 | 1009.0 |
| 20260504022056 | 68 | 336 | 9.6 | 13.0 | 0.00 | 0.00 | 0.00 | 24 | 1008.9 |
| 20260504021556 | 68 | 355 | 6.1 | 9.6 | 0.00 | 0.00 | 0.00 | 23 | 1008.8 |
| 20260504021055 | 69 | 355 | 6.1 | 9.6 | 0.00 | 0.00 | 0.00 | 23 | 1008.8 |
| 20260504020555 | 69 | 355 | 5.2 | 9.6 | 0.00 | 0.00 | 0.00 | 23 | 1008.8 |
| 20260504020055 | 69 | 331 | 6.1 | 8.7 | 0.00 | 0.00 | 0.00 | 23 | 1008.7 |
| 20260504015555 | 70 | 348 | 6.1 | 10.4 | 0.00 | 0.00 | 0.00 | 22 | 1008.8 |
| 20260504015058 | 70 | 5 | 5.2 | 10.4 | 0.00 | 0.00 | 0.00 | 22 | 1008.8 |
| 20260504014555 | 71 | 348 | 7.0 | 9.6 | 0.00 | 0.00 | 0.00 | 22 | 1008.8 |
| 20260504014058 | 71 | 343 | 5.2 | 9.6 | 0.00 | 0.00 | 0.00 | 22 | 1008.9 |
| 20260504013554 | 71 | 360 | 4.3 | 12.2 | 0.00 | 0.00 | 0.00 | 22 | 1008.9 |
| 20260504013054 | 71 | 344 | 7.0 | 12.2 | 0.00 | 0.00 | 0.00 | 22 | 1008.8 |
| 20260504012554 | 72 | 314 | 7.8 | 12.2 | 0.00 | 0.00 | 0.00 | 22 | 1008.8 |
| 20260504012053 | 72 | 327 | 8.7 | 13.0 | 0.00 | 0.00 | 0.00 | 21 | 1008.9 |
| 20260504011553 | 73 | 344 | 9.6 | 13.0 | 0.00 | 0.00 | 0.00 | 21 | 1008.9 |
| 20260504011052 | 73 | 337 | 6.1 | 11.3 | 0.00 | 0.00 | 0.00 | 21 | 1008.8 |
| 20260504010552 | 73 | 322 | 6.1 | 11.3 | 0.00 | 0.00 | 0.00 | 21 | 1008.9 |
| 20260504010057 | 73 | 348 | 8.7 | 15.6 | 0.00 | 0.00 | 0.00 | 21 | 1008.9 |
| 20260504005553 | 73 | 326 | 9.6 | 15.6 | 0.00 | 0.00 | 0.00 | 21 | 1008.8 |
| 20260504005055 | 74 | 329 | 7.8 | 13.9 | 0.00 | 0.00 | 0.00 | 21 | 1008.9 |
| 20260504004551 | 74 | 315 | 8.7 | 15.6 | 0.00 | 0.00 | 0.00 | 21 | 1009.0 |
| 20260504004050 | 74 | 302 | 11.3 | 15.6 | 0.00 | 0.00 | 0.00 | 21 | 1009.1 |
| 20260504003552 | 74 | 305 | 10.4 | 15.6 | 0.00 | 0.00 | 0.00 | 21 | 1009.0 |
| 20260504003051 | 74 | 331 | 9.6 | 14.8 | 0.00 | 0.00 | 0.00 | 21 | 1009.1 |
| 20260504002549 | 74 | 341 | 9.6 | 14.8 | 0.00 | 0.00 | 0.00 | 21 | 1009.1 |
| 20260504002049 | 74 | 342 | 10.4 | 13.0 | 0.00 | 0.00 | 0.00 | 20 | 1009.2 |
| 20260504001607 | 74 | 312 | 8.7 | 13.9 | 0.00 | 0.00 | 0.00 | 21 | 1009.3 |
| 20260504001048 | 74 | 298 | 10.4 | 13.9 | 0.00 | 0.00 | 0.00 | 20 | 1009.4 |
| 20260504000547 | 74 | 324 | 5.2 | 15.6 | 0.00 | 0.00 | 0.00 | 21 | 1009.4 |
| 20260504000049 | 74 | 290 | 11.3 | 18.2 | 0.00 | 0.00 | 0.00 | 21 | 1009.5 |
| 20260503235549 | 75 | 297 | 12.2 | 16.5 | 0.00 | 0.00 | 0.00 | 21 | 1009.6 |
| 20260503235046 | 75 | 294 | 13.0 | 19.1 | 0.00 | 0.00 | 0.00 | 21 | 1009.4 |
| 20260503234546 | 74 | 323 | 9.6 | 16.5 | 0.00 | 0.00 | 0.00 | 21 | 1009.4 |
| 20260503234045 | 74 | 304 | 8.7 | 17.4 | 0.00 | 0.00 | 0.00 | 20 | 1009.6 |
| 20260503233545 | 75 | 315 | 11.3 | 16.5 | 0.00 | 0.00 | 0.00 | 21 | 1009.5 |
| 20260503233044 | 75 | 289 | 12.2 | 16.5 | 0.00 | 0.00 | 0.00 | 21 | 1009.6 |
| 20260503232546 | 75 | 298 | 6.1 | 16.5 | 0.00 | 0.00 | 0.00 | 20 | 1009.6 |
| 20260503232045 | 75 | 308 | 12.2 | 19.1 | 0.00 | 0.00 | 0.00 | 21 | 1009.7 |
| 20260503231543 | 75 | 298 | 11.3 | 19.1 | 0.00 | 0.00 | 0.00 | 21 | 1009.7 |
| 20260503231045 | 74 | 323 | 9.6 | 13.9 | 0.00 | 0.00 | 0.00 | 20 | 1009.7 |
| 20260503230543 | 74 | 290 | 9.6 | 17.4 | 0.00 | 0.00 | 0.00 | 20 | 1009.9 |
| 20260503230046 | 74 | 290 | 11.3 | 17.4 | 0.00 | 0.00 | 0.00 | 20 | 1009.8 |
| 20260503225541 | 75 | 297 | 13.0 | 18.2 | 0.00 | 0.00 | 0.00 | 20 | 1009.9 |
| 20260503225041 | 75 | 246 | 13.9 | 18.2 | 0.00 | 0.00 | 0.00 | 19 | 1009.9 |
| 20260503224540 | 75 | 280 | 9.6 | 15.6 | 0.00 | 0.00 | 0.00 | 20 | 1009.9 |
| 20260503224039 | 75 | 300 | 7.8 | 13.9 | 0.00 | 0.00 | 0.00 | 20 | 1010.0 |
| 20260503223542 | 74 | 314 | 5.2 | 16.5 | 0.00 | 0.00 | 0.00 | 19 | 1010.1 |
| 20260503223041 | 75 | 286 | 11.3 | 16.5 | 0.00 | 0.00 | 0.00 | 19 | 1010.1 |
| 20260503222536 | 74 | 250 | 7.8 | 12.2 | 0.00 | 0.00 | 0.00 | 19 | 1010.2 |
| 20260503222035 | 74 | 284 | 5.2 | 11.3 | 0.00 | 0.00 | 0.00 | 20 | 1010.3 |
| 20260503221541 | 74 | 275 | 7.8 | 11.3 | 0.00 | 0.00 | 0.00 | 19 | 1010.4 |
| 20260503221036 | 74 | 254 | 4.3 | 14.8 | 0.00 | 0.00 | 0.00 | 19 | 1010.5 |
| 20260503220535 | 74 | 327 | 7.8 | 14.8 | 0.00 | 0.00 | 0.00 | 19 | 1010.5 |
| 20260503220040 | 74 | 298 | 4.3 | 18.2 | 0.00 | 0.00 | 0.00 | 19 | 1010.6 |
| 20260503215534 | 74 | 316 | 12.2 | 18.2 | 0.00 | 0.00 | 0.00 | 19 | 1010.7 |
| 20260503215032 | 74 | 284 | 7.8 | 13.0 | 0.00 | 0.00 | 0.00 | 19 | 1010.9 |
| 20260503214530 | 74 | 277 | 9.6 | 13.0 | 0.00 | 0.00 | 0.00 | 19 | 1010.9 |
| 20260503214030 | 74 | 286 | 7.0 | 10.4 | 0.00 | 0.00 | 0.00 | 19 | 1011.1 |
| 20260503213531 | 73 | 329 | 3.5 | 13.9 | 0.00 | 0.00 | 0.00 | 19 | 1011.2 |
| 20260503213032 | 73 | 285 | 8.7 | 20.9 | 0.00 | 0.00 | 0.00 | 20 | 1011.3 |
| 20260503212531 | 73 | 281 | 12.2 | 20.9 | 0.00 | 0.00 | 0.00 | 18 | 1011.4 |
| 20260503212027 | 73 | 232 | 13.0 | 18.2 | 0.00 | 0.00 | 0.00 | 19 | 1011.3 |
| 20260503211526 | 73 | 239 | 7.0 | 14.8 | 0.00 | 0.00 | 0.00 | 19 | 1011.4 |
| 20260503211026 | 73 | 276 | 7.0 | 15.6 | 0.00 | 0.00 | 0.00 | 19 | 1011.5 |
| 20260503210526 | 73 | 273 | 9.6 | 15.6 | 0.00 | 0.00 | 0.00 | 19 | 1011.7 |
| 20260503210024 | 73 | 313 | 7.8 | 15.6 | 0.00 | 0.00 | 0.00 | 19 | 1011.8 |
| 20260503205525 | 73 | 295 | 8.7 | 15.6 | 0.00 | 0.00 | 0.00 | 20 | 1011.9 |
| 20260503205027 | 72 | 279 | 7.8 | 15.6 | 0.00 | 0.00 | 0.00 | 19 | 1012.1 |
| 20260503204525 | 72 | 279 | 5.2 | 18.2 | 0.00 | 0.00 | 0.00 | 20 | 1012.1 |
| 20260503204021 | 72 | 285 | 12.2 | 18.2 | 0.00 | 0.00 | 0.00 | 19 | 1012.1 |
| 20260503203521 | 71 | 290 | 1.7 | 12.2 | 0.00 | 0.00 | 0.00 | 20 | 1012.2 |
| 20260503203020 | 72 | 226 | 6.1 | 16.5 | 0.00 | 0.00 | 0.00 | 20 | 1012.3 |
| 20260503202523 | 72 | 257 | 13.0 | 16.5 | 0.00 | 0.00 | 0.00 | 20 | 1012.3 |
| 20260503202019 | 71 | 229 | 9.6 | 16.5 | 0.00 | 0.00 | 0.00 | 20 | 1012.3 |
| 20260503201527 | 71 | 249 | 9.6 | 15.6 | 0.00 | 0.00 | 0.00 | 21 | 1012.3 |
| 20260503201017 | 71 | 247 | 8.7 | 12.2 | 0.00 | 0.00 | 0.00 | 21 | 1012.5 |
| 20260503200516 | 70 | 292 | 4.3 | 16.5 | 0.00 | 0.00 | 0.00 | 22 | 1012.5 |
| 20260503200017 | 70 | 232 | 8.7 | 16.5 | 0.00 | 0.00 | 0.00 | 21 | 1012.7 |
| 20260503195514 | 70 | 332 | 4.3 | 13.0 | 0.00 | 0.00 | 0.00 | 22 | 1012.7 |
| 20260503195014 | 70 | 295 | 7.8 | 14.8 | 0.00 | 0.00 | 0.00 | 22 | 1012.9 |
| 20260503194513 | 70 | 308 | 10.4 | 15.6 | 0.00 | 0.00 | 0.00 | 22 | 1012.9 |
| 20260503194012 | 70 | 254 | 9.6 | 15.6 | 0.00 | 0.00 | 0.00 | 23 | 1013.0 |
| 20260503193518 | 69 | 288 | 3.5 | 8.7 | 0.00 | 0.00 | 0.00 | 23 | 1013.1 |
| 20260503193012 | 69 | 205 | 5.2 | 12.2 | 0.00 | 0.00 | 0.00 | 21 | 1013.1 |
| 20260503192510 | 69 | 257 | 7.8 | 13.9 | 0.00 | 0.00 | 0.00 | 22 | 1013.3 |
| 20260503192015 | 70 | 251 | 10.4 | 13.9 | 0.00 | 0.00 | 0.00 | 21 | 1013.3 |
| 20260503191509 | 69 | 267 | 7.8 | 15.6 | 0.00 | 0.00 | 0.00 | 22 | 1013.4 |
| 20260503191009 | 69 | 291 | 10.4 | 15.6 | 0.00 | 0.00 | 0.00 | 22 | 1013.5 |
| 20260503190509 | 69 | 273 | 7.0 | 12.2 | 0.00 | 0.00 | 0.00 | 24 | 1013.6 |
| 20260503190017 | 69 | 246 | 6.1 | 13.9 | 0.00 | 0.00 | 0.00 | 23 | 1013.7 |
| 20260503185507 | 69 | 253 | 10.4 | 18.2 | 0.00 | 0.00 | 0.00 | 23 | 1013.7 |
| 20260503185009 | 70 | 274 | 13.0 | 18.2 | 0.00 | 0.00 | 0.00 | 24 | 1013.9 |
| 20260503184507 | 70 | 240 | 13.0 | 17.4 | 0.00 | 0.00 | 0.00 | 23 | 1013.9 |
| 20260503184005 | 69 | 240 | 7.8 | 12.2 | 0.00 | 0.00 | 0.00 | 23 | 1014.1 |
| 20260503183507 | 69 | 296 | 7.8 | 11.3 | 0.00 | 0.00 | 0.00 | 23 | 1014.1 |
| 20260503183006 | 68 | 324 | 3.5 | 11.3 | 0.00 | 0.00 | 0.00 | 25 | 1014.1 |
| 20260503182501 | 68 | 232 | 6.1 | 13.9 | 0.00 | 0.00 | 0.00 | 24 | 1014.2 |
| 20260503182100 | 68 | 257 | 8.7 | 13.9 | 0.00 | 0.00 | 0.00 | 25 | 1014.3 |
| 20260503181623 | 68 | 329 | 4.3 | 9.6 | 0.00 | 0.00 | 0.00 | 26 | 1014.3 |
| 20260503181059 | 67 | 280 | 6.1 | 13.0 | 0.00 | 0.00 | 0.00 | 26 | 1014.4 |
| 20260503180558 | 67 | 294 | 1.7 | 13.0 | 0.00 | 0.00 | 0.00 | 26 | 1014.5 |
| 20260503180134 | 68 | 283 | 9.6 | 13.0 | 0.00 | 0.00 | 0.00 | 25 | 1014.6 |
| 20260503175559 | 67 | 347 | 7.0 | 10.4 | 0.00 | 0.00 | 0.00 | 26 | 1014.6 |
| 20260503175054 | 67 | 298 | 5.2 | 11.3 | 0.00 | 0.00 | 0.00 | 27 | 1014.8 |
| 20260503174557 | 67 | 306 | 7.8 | 11.3 | 0.00 | 0.00 | 0.00 | 26 | 1014.7 |
| 20260503174052 | 66 | 301 | 6.1 | 14.8 | 0.00 | 0.00 | 0.00 | 27 | 1014.8 |
| 20260503173551 | 66 | 286 | 8.7 | 14.8 | 0.00 | 0.00 | 0.00 | 27 | 1014.9 |
| 20260503173057 | 66 | 310 | 4.3 | 14.8 | 0.00 | 0.00 | 0.00 | 27 | 1014.9 |
| 20260503172553 | 66 | 323 | 4.3 | 15.6 | 0.00 | 0.00 | 0.00 | 27 | 1015.1 |
| 20260503172049 | 66 | 304 | 9.6 | 15.6 | 0.00 | 0.00 | 0.00 | 28 | 1015.0 |
| 20260503171549 | 66 | 306 | 7.8 | 12.2 | 0.00 | 0.00 | 0.00 | 28 | 1015.1 |
| 20260503171049 | 65 | 336 | 7.0 | 13.0 | 0.00 | 0.00 | 0.00 | 28 | 1015.1 |
| 20260503170548 | 64 | 315 | 7.8 | 11.3 | 0.00 | 0.00 | 0.00 | 29 | 1015.1 |
| 20260503150524 | 60 | 350 | 8.7 | 12.2 | 0.00 | 0.00 | 0.00 | 37 | 1015.6 |
| 20260503131051 | 39 | 93 | 0.9 | 2.6 | 0.00 | 0.00 | 0.00 | 84 | 1016.1 |
| 20260503130550 | 38 | 103 | 0.9 | 2.6 | 0.00 | 0.00 | 0.00 | 84 | 1016.1 |
| 20260503110536 | 35 | 52 | 0.0 | 0.0 | 0.00 | 0.00 | 0.00 | 88 | 1016.2 |
| 20260503081517 | 37 | 138 | 1.7 | 2.6 | 0.00 | 0.00 | 0.00 | 87 | 1016.8 |
| 20260503081013 | 37 | 135 | 0.0 | 1.7 | 0.00 | 0.00 | 0.00 | 87 | 1016.8 |
| 20260503080513 | 37 | 140 | 0.0 | 0.0 | 0.00 | 0.00 | 0.00 | 87 | 1016.9 |
| 20260503072507 | 38 | 148 | 0.0 | 2.6 | 0.00 | 0.00 | 0.00 | 85 | 1016.8 |
| 20260503072007 | 38 | 153 | 1.7 | 2.6 | 0.00 | 0.00 | 0.00 | 85 | 1016.8 |
| 20260503071506 | 39 | 190 | 0.9 | 2.6 | 0.00 | 0.00 | 0.00 | 85 | 1016.9 |
| 20260503071005 | 39 | 190 | 0.9 | 2.6 | 0.00 | 0.00 | 0.00 | 86 | 1016.8 |
| 20260503070503 | 39 | 267 | 0.0 | 1.7 | 0.00 | 0.00 | 0.00 | 85 | 1016.7 |